Home   Weather   Ghent   Past weeks

Flag for Belgium Past Weather in Ghent, Belgium — Yesterday and Last 2 Weeks

Now
42 °F

Rain. Cloudy.


Feels Like: 40 °F
Forecast: 35 / 52 °F
Wind: 3 mph from Northwest

Location: Munte

Current Time: Apr 25, 2017 at 1:01:50 pm

Latest Report: Apr 25, 2017 at 12:00 pm


Visibility: 9 mi

Pressure: 29.89 "Hg

Humidity: 80%

Dew Point: 36 °F

Location of GhentLocation

Past Weather in Ghent — Graph

°F

Ghent Temperature Yesterday

Maximum temperature yesterday: 58 °F (at 5:00 pm)
Minimum temperature yesterday: 38 °F (at 5:00 am)
Average temperature yesterday: 49 °F

High & Low Weather Summary for the Past Weeks

 TemperatureHumidityPressure
High58 °F (Apr 24, 5:00 pm)100% (Apr 15, 6:00 am)30.67 "Hg (Apr 15, 6:00 am)
Low30 °F (Apr 20, 6:00 am)28% (Apr 20, 5:00 pm)29.80 "Hg (Apr 25, 2:00 am)
Average47 °F69%30.24 "Hg
* Reported Apr 10 11:00 am — Apr 25 11:00 am, Ghent, Weather by CustomWeather, © 2017

Note: Actual official high and low records may vary slightly from our data, if they occured in-between our weather recording intervals... More about our weather records

Advertising

Ghent Weather History for the Previous 24 Hours

Scroll right to see more
 ConditionsComfort  
Time TempWeatherWind HumidityBarometerVisibility
11:00 am
Tue, Apr 25
44 °FQuite cool.5 mph64%29.88 "Hg12 mi
10:00 am43 °FQuite cool.5 mph62%29.87 "Hg12 mi
9:00 am43 °FQuite cool.3 mph63%29.86 "Hg12 mi
8:00 am39 °FChilly.2 mph69%29.85 "Hg12 mi
7:00 am39 °FChilly.2 mph73%29.83 "Hg12 mi
6:00 am40 °FQuite cool.2 mph67%29.82 "Hg12 mi
5:00 am42 °FQuite cool.3 mph62%29.82 "Hg12 mi
4:00 am43 °FQuite cool.2 mph66%29.80 "Hg12 mi
3:00 am45 °FCool.2 mph92%29.80 "Hg12 mi
2:00 am45 °FQuite cool.N/A90%29.80 "Hg12 mi
1:00 am45 °FLight rain. Overcast.N/A91%29.82 "Hg7 mi
12:00 am47 °FRain. Overcast.5 mph91%29.83 "Hg6 mi
11:00 pm
Mon, Apr 24
52 °FCool.3 mph70%29.82 "Hg11 mi
10:00 pm52 °FCool.2 mph75%29.83 "Hg9 mi
9:00 pm52 °FCool.N/A76%29.85 "Hg9 mi
8:00 pm53 °FCool.2 mph72%29.87 "Hg6 mi
7:00 pm55 °FCool.N/A68%29.88 "Hg10 mi
6:00 pm56 °FRefreshingly cool.5 mph50%29.89 "Hg12 mi
5:00 pm58 °FRefreshingly cool.6 mph47%29.91 "Hg12 mi
4:00 pm57 °FRefreshingly cool.5 mph49%29.94 "Hg12 mi
3:00 pm57 °FRefreshingly cool.5 mph50%29.96 "Hg12 mi
2:00 pm57 °FRefreshingly cool.5 mph46%29.99 "Hg12 mi
1:00 pm56 °FRefreshingly cool.5 mph48%30.03 "Hg12 mi
Weather by CustomWeather, © 2017

See weather overviewHow to use our weather pages